PSLV DEB

Satellite information

Favourite Embed

Satellite Type and Status

DEBRISIN ORBIT

Key statistics

Satellite PSLV DEB at a glance.

Uptime

4623

Days in orbit

Revolutions

≈ 14.4

Per day

Orbit

SSO

Sun Synchronous Orbit

Inclination

98.3

Latest

Satellite identification and parameters

Extended collection of information and parameters for PSLV DEB.

Object identification

Identified? True

Debris? True

Object name: PSLV DEB

International designator: 2013-009J

Object number (NORAD): 39094

Object ID (CCSDS): 39094

Country: INDIA (IND)

Current information (Y/N): Y

RCS size: LARGE

Orbital parameters

Period: 99.752 minutes

Inclination: 98.3286 deg

SMA: 7124.853 km

Apoapsis: 753.414 km

Periapsis: 740.022 km

RAAN: 125.1375 deg

Eccentricy: 0.00093986

Argument of periapsis: 155.8125 deg

Mean anomaly: 204.3509 deg

Mean motion: 14.43573474 rev/day

Mean motion (dot): 0.00001931 rev/day2

B* drag term: 0.00058229054 1/REarth

Two-line elements (TLE)

Creation date: Oct. 23, 2025, 2:46 a.m.

Reference frame: TEME

Reference center: EARTH

Epoch: Oct. 22, 2025, 10:26 p.m. UTC

TLE line 0: 0 PSLV DEB

TLE line 1: 1 39094U 13009J 25295.93514660 .00001931 00000-0 58229-3 0 9998

TLE line 2: 2 39094 98.3286 125.1375 0009399 155.8125 204.3509 14.43573474663879

Live tracking on map

Real-time ground track for satellite PSLV DEB.

In-orbit conjunctions

A list of the most updated potential collisions computed for object PSLV DEB.

Target Orbit TCA Probability of collision Miss distance Type
FENGYUN 1C DEB SSO 2025-07-08 20:38:57 0.0001769896 362.0 (m) DEBRIS
COSMOS 468 DEB LEO 2024-12-24 09:36:40 0.0001351814 93.0 (m) DEBRIS
CZ-6A DEB SSO 2024-11-13 05:39:34 0.00026055 204.0 (m) DEBRIS

Associated space launch

SARAL or Satellite with ARgos and ALtiKa is a cooperative altimetry technology mission of Indian Space Research Organisation (ISRO) and CNES (Space Agency of France). SARAL is tasked to perform altimetric measurements designed to study ocean circulation and sea surface elevation.

PSLV DEB was lifted into orbit during the mission ‘PSLV-CA | SARAL’, on board a PSLV space rocket.

The launch took place on Feb. 25, 2013, 12:31 p.m. from Satish Dhawan Space Centre First Launch Pad.

For more information about the launch, click the button.

Launch to space PSLV-CA | SARAL
PSLV-CA | SARAL

Agency: N/A

Status: Launch Successful

Launch date: Feb. 25, 2013, 12:31 p.m. UTC

Rocket: PSLV

Launch pad: Satish Dhawan Space Centre First Launch Pad

Location: Satish Dhawan Space Centre, India

...

Latest news about this satellite

There are no fresh news available about this satellite. Check back as we update our databases every day.


Newsletter sign-up

Weekly statistics, charts and insights to help you stay on top of the space industry.